RH
64 63 64 62 65 66 65 66 66 64 64 67 66 68 66 68 71 78 78 86 80 71 69 66 63 76 61 63 49 34 49 47 45 46 41 41 45 43 48 37 37 52 47 41 38 38 35
61 61 63 63 63 62 59 60 65 64 63 69 66 68 67 70 69 72 75 90 82 76 73 65 66 76 61 77 34 32 33 38 38 45 42 43 47 37 47 56 57 46 55 57 50 43 38
63 60 59 60 59 61 63 61 61 63 60 67 66 64 68 66 72 71 76 82 80 79 72 66 66 61 72 58 34 34 36 37 37 41 48 42 43 48 40 50 40 56 86 75 62 49 46
61 62 60 60 58 57 59 59 60 64 65 67 66 63 63 65 67 74 81 82 83 77 67 66 66 62 70 39 35 40 38 42 42 42 45 42 45 50 53 45 61 65 66 93 49 47 42
61 61 61 61 64 61 63 61 61 59 59 62 65 64 62 66 69 83 85 89 87 78 74 70 64 67 57 51 51 40 39 46 46 51 50 43 54 64 69 87 95 90 90 71 52 52 48
62 62 63 62 62 63 64 65 61 63 59 58 61 62 61 63 70 90 90 83 82 74 69 56 63 75 52 52 48 48 41 48 54 55 60 61 74 86 91 99 86 82 82 61 54 49 63
65 63 62 65 60 62 59 58 60 55 61 66 62 58 57 61 67 78 88 94 85 95 84 68 62 55 49 53 50 51 46 56 55 60 69 68 96 97 76 69 71 66 66 71 50 46 62
64 62 63 64 66 66 63 60 58 58 65 66 68 64 59 60 65 69 94 93 79 70 70 61 50 52 49 49 56 53 47 62 69 80 64 78 84 47 72 84 91 74 63 57 83 60 67
65 66 62 62 64 62 61 66 64 61 65 65 69 69 60 62 66 73 90 89 89 60 71 48 56 54 54 55 52 56 58 60 67 66 60 75 58 59 78 89 94 66 59 76 79 64 59
69 68 66 65 64 59 57 62 67 66 64 66 69 68 62 66 60 59 69 68 88 62 97 64 66 58 60 54 62 52 52 57 63 72 56 58 47 56 84 92 82 74 47 71 66 80 80
82 81 80 82 76 63 56 60 65 65 66 67 69 68 67 67 64 68 81 81 64 57 97 64 69 53 58 61 64 70 57 61 74 59 62 76 62 59 64 75 63 69 47 84 79 69 95
90 90 87 84 78 58 60 66 66 66 68 70 70 70 71 54 59 55 72 89 71 99 96 82 73 80 73 63 58 84 85 80 81 89 83 72 75 85 69 67 65 56 68 73 73 67 95
88 92 89 82 72 62 64 65 66 67 68 71 72 71 78 56 68 65 92 93 100 98 55 83 74 68 58 67 64 72 89 97 97 100 99 93 96 92 89 95 70 76 71 95 99 91 77
94 91 86 81 66 66 65 66 66 68 71 72 73 75 73 57 56 60 90 100 99 64 58 53 56 56 60 53 51 58 63 98 95 98 99 100 98 96 81 81 90 85 65 85 85 76 61
88 85 79 71 65 60 60 64 68 71 72 73 79 86 89 79 66 73 98 100 99 63 54 58 56 57 58 52 54 60 91 86 77 86 94 95 99 83 69 59 63 56 63 45 55 41 49
82 84 77 60 61 61 66 69 70 71 73 78 95 95 95 72 70 86 100 99 72 62 52 47 54 44 49 49 56 64 67 54 56 48 48 55 88 74 60 57 55 56 44 62 62 78 59
80 78 57 57 61 65 70 72 71 71 76 74 88 99 91 68 74 96 96 100 79 66 55 54 46 44 38 46 48 48 52 56 49 47 42 46 52 70 65 61 62 53 48 40 41 45 49
73 60 57 60 62 69 71 72 71 72 78 76 92 100 94 80 99 99 96 82 88 80 57 60 47 41 39 42 46 49 55 55 47 46 49 46 52 75 61 48 46 50 44 38 51 46 44
66 59 58 61 66 69 70 71 71 72 76 89 99 100 93 94 92 97 74 80 91 76 71 64 50 45 43 42 49 51 55 56 48 52 50 40 54 74 59 49 45 47 42 40 37 44 53
62 58 60 63 68 69 71 73 74 74 75 66 70 100 97 95 80 66 76 87 99 71 76 59 50 39 39 42 41 56 57 57 54 51 69 50 50 63 67 67 58 58 47 36 47 75 40
60 60 62 65 67 67 71 75 75 75 76 64 72 98 94 99 91 68 69 95 84 96 71 49 51 41 40 46 44 56 52 51 47 58 46 42 69 76 50 49 50 52 50 42 56 35 49
59 62 64 66 63 68 72 76 78 74 76 82 93 96 87 88 70 84 95 94 95 80 57 55 52 42 38 44 43 46 45 40 46 42 46 45 74 62 62 47 46 52 46 45 45 39 37
60 62 66 64 66 69 75 80 74 74 75 77 92 86 94 95 91 91 72 78 83 61 52 51 52 41 49 53 41 40 38 40 44 45 47 50 60 72 67 50 47 46 45 47 50 46 40
61 64 68 66 68 69 75 76 75 76 72 73 84 90 87 83 86 83 76 70 58 62 58 54 53 48 54 40 36 36 37 39 40 41 38 47 54 66 76 64 77 47 38 42 44 42 43
62 66 68 66 68 71 75 76 76 78 80 80 88 87 94 84 74 77 66 62 54 55 65 66 62 49 46 48 45 49 46 44 46 46 43 40 45 66 74 49 40 43 42 41 42 39 37
63 67 68 68 70 77 79 78 79 81 83 74 75 80 67 74 62 65 59 52 61 65 60 63 56 47 51 45 45 56 53 54 52 53 44 41 39 49 56 65 42 40 39 33 36 38 41
64 67 71 71 73 79 82 85 87 82 81 70 77 72 64 57 58 64 58 63 70 73 74 60 68 60 52 54 53 49 56 54 51 52 55 55 52 60 51 56 41 38 41 37 41 50 46
64 70 72 74 76 82 89 87 83 83 74 66 66 58 59 55 62 63 61 63 63 63 61 60 61 60 66 68 56 48 42 47 49 49 55 51 52 51 47 58 59 38 43 42 40 44 46
64 71 74 75 76 85 86 84 79 72 66 60 56 49 48 59 65 57 57 57 64 64 64 61 64 60 58 70 53 48 46 47 45 42 53 55 44 43 44 42 39 37 41 41 40 40 47
Wind_Speed
18 19 17 18 19 19 19 19 20 21 22 22 23 21 23 25 23 23 24 14 12 10 7 5 4 9 7 7 12 13 4 4 7 7 7 7 8 10 14 11 14 16 21 24 23 21 22
17 17 18 18 20 20 20 22 21 22 23 24 22 23 24 25 24 26 26 17 12 10 7 5 6 10 8 10 6 6 6 6 7 8 8 8 6 8 10 11 17 14 17 20 22 24 21
16 17 18 19 20 20 19 19 21 22 23 22 25 24 23 25 26 24 28 27 12 6 4 6 7 9 8 13 2 6 6 6 5 8 9 8 8 8 7 13 13 13 17 18 22 21 22
20 18 19 18 19 20 19 20 20 20 23 23 24 25 25 26 29 28 30 17 11 8 6 6 7 8 8 2 6 8 9 9 7 7 9 7 6 12 17 12 14 17 16 12 12 18 18
19 20 20 20 19 20 21 21 20 21 21 21 23 24 25 27 30 36 17 14 8 7 4 7 7 11 8 7 8 7 7 8 5 9 9 7 5 9 10 11 8 9 10 14 12 15 10
20 20 21 19 20 21 18 19 18 20 20 21 21 23 24 26 29 22 12 13 8 4 7 5 4 5 7 6 7 5 3 3 4 5 7 11 6 10 5 5 8 6 14 12 13 6 18
20 21 22 20 21 20 22 20 20 22 24 23 25 21 24 24 24 20 6 4 6 3 8 8 10 4 8 7 4 6 5 7 5 5 8 14 9 10 15 15 18 18 16 17 15 9 17
20 20 21 21 21 20 21 21 21 21 20 23 21 22 24 24 22 22 4 3 7 3 6 21 12 14 2 4 4 8 8 8 6 9 12 6 12 14 6 8 12 18 18 18 4 8 11
21 21 20 20 19 21 21 21 22 21 20 22 21 20 19 26 26 8 5 4 2 7 4 6 16 13 7 8 5 11 12 5 7 8 11 13 9 5 5 8 10 14 16 11 5 10 7
25 23 21 20 20 21 22 21 21 21 20 20 19 19 18 20 15 10 7 5 6 8 3 9 9 7 8 6 5 7 10 4 5 8 12 10 12 6 7 10 8 10 11 6 7 8 2
27 23 21 19 24 23 21 23 20 21 22 21 17 17 16 12 12 8 7 10 5 2 5 9 8 7 9 8 9 8 4 5 9 7 4 3 5 7 11 6 7 6 4 5 10 10 4
35 26 9 17 24 23 22 22 21 22 22 20 17 14 13 10 6 11 4 4 1 3 5 5 7 8 9 9 6 5 5 1 5 3 6 12 4 6 5 10 10 11 8 10 13 9 1
37 24 17 19 23 23 21 21 22 23 22 20 19 17 7 9 7 5 2 2 4 7 6 5 7 9 12 9 8 8 8 6 3 3 3 1 3 4 7 7 7 8 8 3 6 1 3
20 22 21 19 20 22 20 23 24 24 23 21 20 19 14 12 7 9 1 0 7 6 5 3 9 12 6 10 5 7 2 1 3 1 3 3 3 6 6 2 1 3 4 4 5 2 4
21 18 15 18 21 21 23 24 25 25 24 23 24 7 5 8 8 5 2 4 6 6 4 6 10 10 6 5 3 4 6 3 6 10 4 0 4 5 3 4 5 3 2 6 6 5 6
13 11 14 19 21 20 24 25 25 24 25 25 7 4 2 4 9 6 1 4 4 6 3 8 2 5 5 7 5 4 3 4 2 1 3 1 3 3 5 5 5 4 6 3 1 3 6
15 13 19 20 21 22 24 25 25 25 24 21 4 3 10 13 8 2 2 3 5 7 6 4 3 4 2 5 1 2 4 3 5 3 2 4 2 1 4 5 7 3 6 3 4 3 2
15 19 20 20 21 23 24 24 24 24 22 11 4 4 6 2 3 2 2 5 4 6 5 3 3 5 2 2 3 2 6 6 8 6 4 5 4 3 2 1 2 2 9 9 5 5 4
16 20 19 19 21 22 23 23 23 23 19 6 3 3 2 4 2 2 4 4 5 4 5 7 4 5 1 2 1 4 4 4 7 6 7 6 4 2 2 2 0 6 11 10 3 4 5
17 18 19 20 21 20 21 21 22 21 19 4 2 3 3 2 2 6 3 4 3 4 5 6 3 3 3 4 3 5 5 4 5 6 5 6 6 7 6 5 4 6 11 13 7 6 12
16 17 19 19 20 21 21 21 20 18 18 4 3 2 2 3 4 2 4 3 2 5 5 4 2 2 2 2 4 4 3 5 4 3 4 7 5 4 8 6 5 4 7 11 12 11 11
16 17 19 19 19 20 20 20 16 14 14 4 3 2 2 3 2 3 3 3 3 3 4 2 2 5 2 4 6 4 2 3 5 3 4 4 2 3 3 5 5 5 7 6 8 8 10
15 17 19 19 19 20 19 17 12 11 9 3 0 2 3 4 2 3 2 3 1 3 3 5 8 3 8 7 9 8 8 8 6 5 4 4 2 3 3 7 4 4 8 5 4 4 3
13 16 18 18 20 19 19 15 14 10 4 1 0 1 2 3 2 3 4 4 5 7 4 7 8 2 3 3 7 8 9 9 9 7 5 3 3 1 2 4 2 4 4 5 4 2 4
13 16 18 18 20 21 20 15 12 10 5 3 1 2 1 2 2 3 1 3 2 3 5 6 7 5 5 6 3 2 2 2 5 6 7 5 0 2 2 1 3 1 1 2 4 5 3
11 16 18 19 20 20 20 18 14 8 2 5 2 1 3 3 3 2 3 0 2 1 5 3 3 5 5 3 1 2 3 4 2 2 4 4 4 3 1 0 0 4 4 1 3 3 3
11 13 19 21 23 23 24 18 11 6 10 3 3 2 3 2 3 3 2 3 3 0 3 3 2 4 6 2 1 1 3 3 1 2 1 1 3 3 1 3 2 5 3 2 2 5 4
12 13 17 21 23 25 19 4 13 12 6 1 3 2 4 2 3 2 3 2 3 3 0 5 4 3 0 2 2 1 2 2 3 2 2 3 2 2 1 2 2 4 2 2 4 2 3
9 12 14 17 20 22 9 13 16 10 2 3 2 1 2 3 4 1 2 3 4 5 5 3 4 3 3 1 1 1 2 2 3 2 2 3 3 4 4 3 3 4 4 3 3 3 1
Wind_Direction
355 351 350 351 348 351 350 350 348 344 341 341 335 341 340 335 333 332 330 220 212 220 205 222 230 163 207 228 249 137 161 153 181 195 230 242 265 267 258 274 289 265 260 269 272 269 259
351 348 349 347 345 344 346 340 344 341 341 337 342 344 343 336 328 327 324 288 210 224 197 192 207 179 235 243 69 145 173 187 219 206 220 229 255 290 304 278 270 272 280 274 265 261 257
343 344 347 344 342 342 340 341 339 340 334 342 337 339 340 332 328 316 323 307 189 194 202 199 188 204 227 241 147 164 187 221 236 232 241 244 268 255 274 277 274 287 278 276 266 257 251
337 337 340 335 337 335 336 335 336 343 331 339 336 337 335 333 327 322 307 273 182 164 180 196 191 223 249 159 246 208 222 232 225 252 245 261 262 261 264 264 275 278 274 267 249 238 233
333 335 335 334 331 329 329 330 330 327 329 334 329 329 334 333 330 321 287 157 136 129 173 188 194 224 252 114 210 220 230 238 223 213 232 233 223 242 245 242 260 221 264 241 255 202 216
330 328 328 333 328 324 331 319 324 323 320 319 325 324 331 333 335 341 85 119 125 147 187 186 319 215 218 209 149 164 167 193 193 189 223 226 225 239 210 200 252 259 227 253 255 218 197
322 323 324 322 319 323 323 330 326 325 330 327 318 321 323 329 336 338 349 140 109 177 222 202 180 244 139 107 153 190 146 161 181 202 216 196 216 229 234 234 248 278 295 266 271 265 187
311 317 319 318 327 322 323 325 320 322 326 321 320 318 320 324 330 323 298 311 336 15 263 224 240 217 132 185 189 179 173 214 200 221 221 227 245 255 335 289 265 256 262 270 286 230 189
302 306 317 314 325 326 325 321 315 327 321 322 321 314 320 319 322 294 213 231 322 300 259 171 210 216 210 202 226 162 193 197 239 251 234 241 256 209 267 267 247 249 241 267 196 196 233
297 299 303 317 323 328 327 324 318 319 317 324 322 321 318 324 304 350 284 332 215 258 272 163 183 196 175 218 214 146 199 227 207 241 240 259 263 246 237 249 269 262 231 262 142 203 143
292 292 305 336 332 323 327 329 327 318 321 317 318 316 321 318 301 301 357 328 158 237 245 127 135 131 151 196 131 178 187 212 260 267 249 282 326 276 267 268 218 273 224 178 286 276 319
295 280 312 5 319 326 329 332 326 323 323 321 318 310 322 297 301 274 325 326 146 199 228 137 127 163 159 200 187 126 178 258 291 283 243 271 359 323 283 312 275 295 172 215 259 256 120
306 306 32 355 327 326 334 331 329 327 325 322 314 302 247 268 267 20 46 132 179 254 159 145 164 170 193 162 184 184 180 187 275 255 229 184 216 235 226 248 225 248 241 188 225 98 46
11 43 19 329 327 321 339 334 332 332 329 322 315 301 270 262 246 254 218 223 247 76 92 144 148 164 173 157 185 190 214 229 216 158 293 297 127 358 324 321 265 208 307 320 351 103 90
32 21 347 321 319 347 340 337 337 334 331 326 321 284 261 232 211 194 127 224 17 38 106 139 139 163 153 171 271 148 204 190 166 201 284 320 40 328 301 341 335 345 305 339 312 48 72
6 360 318 335 349 347 340 337 339 337 336 328 303 345 247 168 165 162 153 332 33 30 117 141 119 265 159 165 200 185 157 21 63 18 258 53 106 332 325 320 212 297 329 260 249 318 78
356 342 350 352 351 348 340 342 343 345 342 332 344 10 47 120 129 95 255 31 44 27 19 6 8 122 71 132 258 93 53 71 13 354 282 302 294 119 260 23 5 359 19 299 273 329 337
356 357 354 352 351 347 346 349 346 349 349 343 10 60 1 155 77 255 339 31 19 349 354 352 301 43 96 102 83 79 82 38 350 325 26 16 53 65 72 225 327 324 5 9 336 44 12
359 355 352 348 350 348 352 349 348 350 2 336 50 30 347 285 96 52 36 63 46 354 344 333 52 28 357 67 70 65 71 9 7 18 1 359 26 171 149 157 204 20 10 354 9 14 15
355 353 350 351 347 348 352 349 349 349 353 354 50 71 340 339 303 99 82 17 34 300 293 295 40 90 125 46 30 122 109 44 8 13 330 285 52 36 59 52 331 13 16 22 38 44 72
352 349 347 348 349 352 352 351 349 349 348 298 40 50 338 20 26 37 40 355 43 352 237 326 106 67 97 93 96 92 95 142 75 6 18 359 67 64 72 49 67 28 35 40 45 35 66
349 345 342 345 348 348 350 346 348 352 334 52 47 7 32 11 356 81 336 33 33 317 329 46 68 73 346 58 359 131 117 28 34 53 21 8 88 14 55 38 51 64 50 57 64 64 76
345 342 342 345 343 344 345 346 7 359 331 59 354 254 279 11 10 305 45 90 263 300 80 42 335 85 62 35 53 66 66 62 60 7 44 18 119 341 8 356 330 142 25 38 75 44 13
344 336 339 339 336 337 338 346 345 344 316 323 6 277 306 88 331 340 331 276 22 15 45 54 16 352 40 175 109 93 84 76 65 45 1 106 101 40 323 297 12 59 43 358 347 42 82
341 335 336 335 334 331 330 329 324 325 313 224 181 232 304 108 270 124 142 189 237 73 53 43 20 30 355 285 151 150 118 152 57 41 22 5 218 71 292 256 112 206 307 350 1 93 66
342 334 334 333 332 326 324 317 305 295 253 173 189 21 300 311 61 57 124 65 138 40 118 49 94 344 309 298 294 346 28 16 31 47 13 5 3 342 360 46 190 66 118 213 267 152 78
334 341 335 336 334 328 319 303 283 166 171 162 90 25 265 317 66 308 52 49 66 170 52 107 7 335 337 320 48 353 75 346 298 312 333 357 338 321 317 338 328 99 101 261 254 58 73
327 340 345 339 338 335 336 60 121 136 149 30 86 337 301 5 90 336 337 306 178 225 214 139 199 198 144 300 296 57 296 80 272 10 271 254 245 236 242 274 269 138 111 301 52 102 118
326 335 351 344 342 347 45 105 110 112 121 319 96 59 359 358 62 43 25 20 5 338 313 161 350 343 37 261 257 285 204 204 327 239 215 257 318 346 287 27 26 196 25 73 20 13 301